"2009-10-26 00:00:00",1359646,7.662,56.28,5.783,0.843,4.61,99.69749,-1.471,-0.252,86.6,0,109.5,13.64,-0.72,18.3
"2009-10-26 00:00:30",1359647,8.69,52.86,3.903,0.901,4.858,99.72184,-1.409,-0.245,86.1,0,109.5,13.64,-0.66,14.9
"2009-10-26 00:01:00",1359648,8.86,58.81,4.318,0.815,4.771,99.72778,-1.393,-0.244,85.6,0,109.4,13.64,-0.65,20.8
"2009-10-26 00:01:30",1359649,8.68,53.44,4.403,0.935,4.737,99.72807,-1.393,-0.224,85,0,109.5,13.64,-0.65,15.4
"2009-10-26 00:02:00",1359650,8.11,58.55,2.395,0.765,4.774,99.74053,-1.361,-0.209,84.5,0,109.5,13.64,-0.61,20.5
"2009-10-26 00:02:30",1359651,8.08,56.09,3.501,0.83,4.803,99.76122,-1.308,-0.185,84.2,0,109.5,13.64,-0.56,18.1
"2009-10-26 00:03:00",1359652,8.79,64.13,6.412,0.683,4.916,99.76207,-1.306,-0.169,83.9,0,109.5,13.64,-0.56,26.1
"2009-10-26 00:03:30",1359653,8.32,67.92,7.306,0.774,4.978,99.76292,-1.304,-0.136,83.5,0,109.5,13.64,-0.56,29.9
"2009-10-26 00:04:00",1359654,7.329,53.14,4.655,0.739,4.405,99.78501,-1.248,-0.125,82.9,0,109.5,13.64,-0.50,15.1
"2009-10-26 00:04:30",1359655,7.793,50.32,2.787,0.756,4.483,99.79577,-1.22,-0.108,82.9,0,109.5,13.64,-0.47,12.3
"2009-10-26 00:05:00",1359656,9.22,54.44,4.266,0.607,4.345,99.79605,-1.219,-0.082,83,0,109.5,13.64,-0.47,16.4
"2009-10-26 00:05:30",1359657,9.58,62.4,5.418,0.77,5.055,99.79577,-1.22,-0.054,82.9,0,109.5,13.64,-0.47,24.4
"2009-10-26 00:06:00",1359658,9.31,56.85,8.87,1.203,4.952,99.80795,-1.189,-0.036,82.3,0,109.5,13.64,-0.44,18.8
"2009-10-26 00:06:30",1359659,7.856,48.6,4.72,1.11,4.88,99.82948,-1.134,-0.028,81.8,0,109.5,13.64,-0.39,10.6
"2009-10-26 00:07:00",1359660,9.12,52.66,4.102,0.743,4.952,99.82976,-1.134,0.005,81.7,0,109.5,13.64,-0.39,14.7
"2009-10-26 00:07:30",1359661,10.09,47.91,3.538,0.769,5.152,99.83146,-1.129,0.04,81.4,0,109.5,13.64,-0.38,9.9
"2009-10-26 00:08:00",1359662,9.36,59.75,6.033,1.085,5.057,99.85355,-1.073,0.05,81,0,109.5,13.64,-0.32,21.8
"2009-10-26 00:08:30",1359663,9.43,59.23,3.675,0.74,5.265,99.86403,-1.046,0.063,80.7,0,109.5,13.64,-0.30,21.2
"2009-10-26 00:09:00",1359664,8.56,57.81,5.342,1.021,4.954,99.86403,-1.046,0.074,80.6,0,109.4,13.64,-0.30,19.8
"2009-10-26 00:09:30",1359665,8.49,52.48,5.848,1.037,5.071,99.86403,-1.046,0.11,80.7,0,109.5,13.64,-0.30,14.5
"2009-10-26 00:10:00",1359666,8.73,54.31,4.339,0.739,4.985,99.86403,-1.046,0.121,80.8,0,109.5,13.64,-0.30,16.3
"2009-10-26 00:10:30",1359667,8.09,55.55,2.969,0.784,4.933,99.86658,-1.04,0.156,80.8,0,109.5,13.63,-0.29,17.5
"2009-10-26 00:11:00",1359668,8.1,51.99,3.954,0.874,4.749,99.87254,-1.025,0.167,81,0,109.4,13.63,-0.28,14.0
"2009-10-26 00:11:30",1359669,8.25,49.61,4.778,1.036,4.767,99.87791,-1.011,0.203,81.3,0,109.5,13.63,-0.26,11.6
"2009-10-26 00:12:00",1359670,7.968,47.14,3.656,0.858,4.717,99.87904,-1.008,0.178,81.4,0,109.5,13.63,-0.26,9.1
"2009-10-26 00:12:30",1359671,6.847,45.13,4.925,0.845,4.627,99.8799,-1.006,0.197,81.5,0,109.5,13.63,-0.26,7.1
"2009-10-26 00:13:00",1359672,7.81,49.8,3.594,0.733,4.228,99.87679,-1.014,0.205,81.6,0,109.5,13.63,-0.27,11.8
"2009-10-26 00:13:30",1359673,8.96,52.11,3.699,0.85,4.577,99.87424,-1.02,0.228,81.7,0,109.5,13.63,-0.27,14.1
"2009-10-26 00:14:00",1359674,10.27,55.56,3.891,0.766,4.931,99.86743,-1.038,0.218,81.5,0,109.5,13.63,-0.29,17.6
"2009-10-26 00:14:30",1359675,9.79,59.42,3.292,0.982,5.143,99.87055,-1.03,0.208,80.9,0,109.5,13.63,-0.28,21.4
"2009-10-26 00:15:00",1359676,9.41,62.48,4.183,0.853,5.296,99.87282,-1.024,0.206,80.4,0,109.5,13.63,-0.28,24.5
"2009-10-26 00:15:30",1359677,8.97,56.22,5.709,0.883,5.083,99.8799,-1.006,0.223,80.2,0,109.5,13.63,-0.26,18.2
"2009-10-26 00:16:00",1359678,9.12,59.6,5.029,0.856,5.205,99.88443,-0.994,0.216,80.3,0,109.5,13.64,-0.25,21.6
"2009-10-26 00:16:30",1359679,8.42,56.39,6.16,1.061,5.247,99.88783,-0.986,0.236,80.4,0,109.5,13.64,-0.24,18.4
"2009-10-26 00:17:00",1359680,9.04,54.24,3.493,0.808,5.077,99.89265,-0.973,0.234,80.4,0,109.5,13.64,-0.22,16.2
"2009-10-26 00:17:30",1359681,9.09,56.34,4.403,0.736,5.035,99.89603,-0.965,0.242,80.3,0,109.5,13.64,-0.22,18.3
"2009-10-26 00:18:00",1359682,8.64,61.01,3.939,0.759,5.113,99.89661,-0.963,0.234,80.4,0,109.5,13.64,-0.21,23.0
"2009-10-26 00:18:30",1359683,8.6,59.45,4.263,0.699,5.308,99.89774,-0.96,0.254,80.5,0,109.5,13.64,-0.21,21.5
"2009-10-26 00:19:00",1359684,9.32,59.59,5.674,0.571,5.201,99.89745,-0.961,0.24,80.5,0,109.5,13.64,-0.21,21.6
"2009-10-26 00:19:30",1359685,9.39,58.73,4.046,0.73,5.164,99.89803,-0.96,0.259,80.2,0,109.5,13.64,-0.21,20.7
"2009-10-26 00:20:00",1359686,9.19,60.44,4.454,0.727,5.07,99.89774,-0.96,0.248,80.1,0,109.5,13.64,-0.21,22.4
"2009-10-26 00:20:30",1359687,9.85,61.86,4.014,1.004,5.489,99.89774,-0.96,0.247,80.2,0,109.5,13.64,-0.21,23.9
"2009-10-26 00:21:00",1359688,9.66,57.31,4.084,0.806,5.365,99.89803,-0.96,0.255,79.65,0,109.5,13.64,-0.21,19.3
"2009-10-26 00:21:30",1359689,10.54,57.92,3.777,0.793,5.41,99.89803,-0.96,0.267,79.16,0,109.5,13.64,-0.21,19.9
"2009-10-26 00:22:00",1359690,10.6,60.3,4.187,0.772,5.468,99.89774,-0.96,0.249,78.83,0,109.5,13.64,-0.21,22.3
"2009-10-26 00:22:30",1359691,10.93,57.61,3.284,0.735,5.691,99.89803,-0.96,0.241,78.08,0,109.5,13.64,-0.21,19.6
"2009-10-26 00:23:00",1359692,11.01,57.82,3.393,0.602,5.598,99.89803,-0.96,0.25,77.14,0,109.5,13.64,-0.21,19.8
"2009-10-26 00:23:30",1359693,11.57,55.82,3.382,0.748,5.732,99.89803,-0.96,0.268,76.65,0,109.5,13.64,-0.21,17.8
"2009-10-26 00:24:00",1359694,10.91,54.93,2.873,0.797,5.749,99.89803,-0.96,0.247,75.79,0,109.5,13.64,-0.21,16.9
"2009-10-26 00:24:30",1359695,11.79,53.98,2.9,0.821,6.107,99.89803,-0.96,0.251,75.51,0,109.5,13.64,-0.21,16.0
"2009-10-26 00:25:00",1359696,11.63,55.99,1.664,0.725,6.011,99.89803,-0.96,0.249,74.21,0,109.4,13.64,-0.21,18.0
"2009-10-26 00:25:30",1359697,11.46,55.46,4.015,0.656,6.063,99.89803,-0.96,0.248,73.69,0,109.5,13.64,-0.21,17.5
"2009-10-26 00:26:00",1359698,11.72,56.1,3.982,0.638,6.13,99.89803,-0.96,0.248,73.03,0,109.5,13.64,-0.21,18.1
"2009-10-26 00:26:30",1359699,11.62,54.86,3.789,0.62,6.249,99.89859,-0.958,0.265,72.43,0,109.5,13.63,-0.21,16.9
"2009-10-26 00:27:00",1359700,11.36,54.08,2.735,0.642,6.039,99.90256,-0.948,0.258,72.64,0,109.4,13.63,-0.20,16.1
"2009-10-26 00:27:30",1359701,11.2,56.11,2.308,0.756,6.111,99.90511,-0.941,0.284,72.6,0,109.5,13.63,-0.19,18.1
"2009-10-26 00:28:00",1359702,10.79,52.43,4.053,0.867,6.021,99.90794,-0.934,0.28,72.16,0,109.5,13.63,-0.19,14.4
"2009-10-26 00:28:30",1359703,11.16,54.13,2.629,0.719,6.18,99.90822,-0.934,0.266,72.27,0,109.5,13.63,-0.18,16.1
"2009-10-26 00:29:00",1359704,11.2,53.78,2.984,0.642,5.962,99.91049,-0.928,0.275,71.83,0,109.5,13.63,-0.18,15.8
"2009-10-26 00:29:30",1359705,11.02,53.77,3.034,0.738,5.956,99.90879,-0.932,0.295,71.73,0,109.5,13.63,-0.18,15.8
"2009-10-26 00:30:00",1359706,10.88,54.39,3.239,0.674,5.95,99.90794,-0.934,0.285,71.51,0,109.5,13.63,-0.19,16.4
"2009-10-26 00:30:30",1359707,10.75,56.66,3.35,0.667,6.207,99.90454,-0.943,0.293,71.4,0,109.5,13.63,-0.19,18.7
"2009-10-26 00:31:00",1359708,10.59,57.98,2.695,0.677,5.947,99.9034,-0.946,0.284,71.33,0,109.5,13.63,-0.20,20.0
"2009-10-26 00:31:30",1359709,10.37,57.36,3.631,0.566,5.914,99.90369,-0.945,0.306,71.33,0,109.5,13.63,-0.20,19.4
"2009-10-26 00:32:00",1359710,10.29,57.89,3.555,0.776,5.88,99.9017,-0.95,0.287,71.41,0,109.5,13.63,-0.20,19.9
"2009-10-26 00:32:30",1359711,10.23,60.06,3.309,0.757,6.013,99.90086,-0.952,0.291,71.44,0,109.5,13.64,-0.20,22.1
"2009-10-26 00:33:00",1359712,10.08,65.4,2.483,0.802,5.802,99.90256,-0.948,0.298,71.38,0,109.5,13.64,-0.20,27.4
"2009-10-26 00:33:30",1359713,9.35,66.53,2.665,0.79,5.705,99.90369,-0.945,0.306,71.3,0,109.5,13.64,-0.20,28.5
"2009-10-26 00:34:00",1359714,9.21,64.52,3.156,0.778,5.61,99.90567,-0.94,0.305,71.24,0,109.5,13.64,-0.19,26.5
"2009-10-26 00:34:30",1359715,9.55,61.91,3.762,0.662,5.598,99.90879,-0.932,0.293,71.21,0,109.5,13.64,-0.18,23.9
"2009-10-26 00:35:00",1359716,9.6,65.98,3.142,0.646,5.449,99.90964,-0.93,0.295,71.28,0,109.5,13.64,-0.18,28.0
"2009-10-26 00:35:30",1359717,9.92,63.49,3.381,0.679,5.511,99.91134,-0.926,0.319,71.45,0,109.5,13.64,-0.18,25.5
"2009-10-26 00:36:00",1359718,9.92,65.82,3.236,0.717,5.401,99.91162,-0.925,0.316,71.58,0,109.5,13.64,-0.18,27.8
"2009-10-26 00:36:30",1359719,10.26,68,3.306,0.78,5.516,99.91332,-0.921,0.303,71.84,0,109.5,13.64,-0.17,30.0
"2009-10-26 00:37:00",1359720,10.47,64.95,3.942,0.576,5.388,99.90935,-0.931,0.314,71.82,0,109.4,13.64,-0.18,26.9
"2009-10-26 00:37:30",1359721,9.99,64.29,4.043,0.689,5.39,99.90964,-0.93,0.328,71.65,0,109.5,13.64,-0.18,26.3
"2009-10-26 00:38:00",1359722,9.97,64.99,3.836,1.005,5.307,99.90681,-0.937,0.315,71.66,0,109.5,13.64,-0.19,27.0
"2009-10-26 00:38:30",1359723,11.13,63,4.546,0.577,5.673,99.90086,-0.952,0.327,71.63,0,109.5,13.64,-0.20,25.0
"2009-10-26 00:39:00",1359724,10.52,63.64,3.431,0.738,5.424,99.89915,-0.957,0.297,71.67,0,109.4,13.64,-0.21,25.6
"2009-10-26 00:39:30",1359725,10.92,63.47,3.356,0.669,5.578,99.89831,-0.959,0.314,71.7,0,109.5,13.64,-0.21,25.5
"2009-10-26 00:40:00",1359726,10.99,65.31,3.611,0.662,5.716,99.89803,-0.96,0.292,71.2,0,109.5,13.64,-0.21,27.3
"2009-10-26 00:40:30",1359727,10.65,67.24,3.27,0.654,5.738,99.89803,-0.96,0.291,70.88,0,109.5,13.64,-0.21,29.2
"2009-10-26 00:41:00",1359728,10.91,71.21,2.332,0.71,5.568,99.89803,-0.96,0.291,70.79,0,109.4,13.64,-0.21,33.2
"2009-10-26 00:41:30",1359729,10.97,67.15,3.229,0.781,5.478,99.89803,-0.96,0.304,70.96,0,109.5,13.64,-0.21,29.2
"2009-10-26 00:42:00",1359730,10.54,70.12,2.694,0.813,5.506,99.89803,-0.96,0.29,71.21,0,109.5,13.64,-0.21,32.1
"2009-10-26 00:42:30",1359731,10.55,67.24,2.633,0.858,5.621,99.89803,-0.96,0.28,71.36,0,109.5,13.64,-0.21,29.2
"2009-10-26 00:43:00",1359732,10.33,71.41,4.819,0.711,5.438,99.89803,-0.96,0.275,71.42,0,109.5,13.63,-0.21,33.4
"2009-10-26 00:43:30",1359733,10.22,71.7,3.487,0.697,5.328,99.89803,-0.96,0.307,71.5,0,109.5,13.63,-0.21,33.7
"2009-10-26 00:44:00",1359734,9.93,71.39,3.475,0.807,5.254,99.89661,-0.963,0.284,71.58,0,109.5,13.63,-0.21,33.4
"2009-10-26 00:44:30",1359735,9.99,74.56,3.102,0.691,5.338,99.88981,-0.98,0.28,71.75,0,109.5,13.63,-0.23,36.6
"2009-10-26 00:45:00",1359736,10.92,69.68,3.563,0.654,5.173,99.88216,-1,0.288,71.69,0,109.5,13.63,-0.25,31.7
"2009-10-26 00:45:30",1359737,10.87,69.59,4.516,0.667,5.225,99.87083,-1.029,0.277,71.27,0,109.5,13.63,-0.28,31.6
"2009-10-26 00:46:00",1359738,10.24,69.87,3.929,0.67,5.267,99.86488,-1.044,0.259,71.27,0,109.5,13.63,-0.30,31.9
"2009-10-26 00:46:30",1359739,11.38,64.37,3.102,0.725,5.324,99.86403,-1.046,0.255,71.25,0,109.5,13.63,-0.30,26.4
"2009-10-26 00:47:00",1359740,10.83,66.66,4.404,0.716,5.396,99.86403,-1.046,0.242,70.71,0,109.5,13.63,-0.30,28.7
"2009-10-26 00:47:30",1359741,9.92,68.55,3.644,0.615,5.384,99.86403,-1.046,0.247,70.73,0,109.5,13.63,-0.30,30.6
"2009-10-26 00:48:00",1359742,11.13,64.2,3.029,1,5.243,99.86375,-1.047,0.227,70.84,0,109.5,13.64,-0.30,26.2
"2009-10-26 00:48:30",1359743,11.67,63.56,3.317,0.631,5.482,99.84591,-1.092,0.201,70.09,0,109.5,13.64,-0.34,25.6
"2009-10-26 00:49:00",1359744,11.88,65.31,2.572,0.692,5.505,99.83089,-1.131,0.191,69.41,0,109.4,13.64,-0.38,27.3
"2009-10-26 00:49:30",1359745,12,62.94,3.532,0.588,5.599,99.83005,-1.133,0.194,69.14,0,109.5,13.64,-0.38,24.9
"2009-10-26 00:50:00",1359746,11.94,62.64,3.749,0.601,5.582,99.83005,-1.133,0.184,69.06,0,109.5,13.64,-0.38,24.6
"2009-10-26 00:50:30",1359747,11.73,62.13,3.634,0.728,5.839,99.83005,-1.133,0.162,68.9,0,109.5,13.64,-0.38,24.1
"2009-10-26 00:51:00",1359748,11.49,63.63,2.692,0.644,5.75,99.81899,-1.161,0.136,68.81,0,109.4,13.64,-0.41,25.6
"2009-10-26 00:51:30",1359749,10.85,65.65,3.813,0.693,5.684,99.80342,-1.201,0.137,68.85,0,109.5,13.64,-0.45,27.7
"2009-10-26 00:52:00",1359750,10.79,64.32,2.733,0.758,5.594,99.79747,-1.216,0.107,68.81,0,109.5,13.64,-0.47,26.3
"2009-10-26 00:52:30",1359751,10.54,65.35,2.706,0.722,5.643,99.79605,-1.219,0.091,68.83,0,109.5,13.64,-0.47,27.3
"2009-10-26 00:53:00",1359752,11.47,61.86,3.344,0.717,5.493,99.79605,-1.219,0.072,68.87,0,109.5,13.64,-0.47,23.9
"2009-10-26 00:53:30",1359753,11.64,62.56,3.849,0.668,5.625,99.79605,-1.219,0.091,68.93,0,109.5,13.64,-0.47,24.6
"2009-10-26 00:54:00",1359754,11.68,63.63,3.576,0.794,5.622,99.79605,-1.219,0.072,68.91,0,109.5,13.64,-0.47,25.6
"2009-10-26 00:54:30",1359755,12.11,59.17,4.242,0.683,5.823,99.79294,-1.227,0.046,68.83,0,109.5,13.64,-0.48,21.2
"2009-10-26 00:55:00",1359756,12.25,59.79,3.676,0.841,5.732,99.78019,-1.26,0.036,68.79,0,109.4,13.64,-0.51,21.8
"2009-10-26 00:55:30",1359757,12.9,58.03,4.265,0.612,5.821,99.76942,-1.287,0.046,68.7,0,109.5,13.64,-0.54,20.0
"2009-10-26 00:56:00",1359758,13.14,59.3,3.98,0.635,5.941,99.76292,-1.304,0.014,68.71,0,109.5,13.64,-0.56,21.3
"2009-10-26 00:56:30",1359759,12.91,58.99,4.63,0.583,6.267,99.76207,-1.306,0.02,68.76,0,109.5,13.64,-0.56,21.0
"2009-10-26 00:57:00",1359760,12.52,60.17,3.304,0.743,6.044,99.76207,-1.306,0,68.82,0,109.5,13.64,-0.56,22.2
"2009-10-26 00:57:30",1359761,12,60.94,4.386,0.699,5.993,99.76207,-1.306,-0.013,68.75,0,109.5,13.64,-0.56,22.9
"2009-10-26 00:58:00",1359762,12.21,61.18,3.76,0.556,6.048,99.76207,-1.306,-0.011,68.69,0,109.5,13.64,-0.56,23.2
"2009-10-26 00:58:30",1359763,11.67,62.49,3.95,0.643,6.178,99.76207,-1.306,-0.021,68.57,0,109.5,13.64,-0.56,24.5
"2009-10-26 00:59:00",1359764,12.77,59.59,3.801,0.818,5.91,99.76207,-1.306,-0.041,68.55,0,109.4,13.63,-0.56,21.6
"2009-10-26 00:59:30",1359765,11.24,63.88,3.658,0.732,5.843,99.76207,-1.306,-0.033,68.66,0,109.5,13.64,-0.56,25.9
"2009-10-26 01:00:00",1359766,10.62,61.63,3.728,0.767,5.693,99.76207,-1.306,-0.049,68.81,0,109.5,13.63,-0.56,23.6
"2009-10-26 01:00:30",1359767,11.55,57.25,4.049,0.961,5.802,99.76207,-1.306,-0.062,68.92,0,109.5,13.63,-0.56,19.2
"2009-10-26 01:01:00",1359768,12.43,58.82,4.286,0.565,5.855,99.76065,-1.31,-0.065,68.92,0,109.5,13.63,-0.56,20.8
"2009-10-26 01:01:30",1359769,12.56,60.49,4.603,0.801,5.753,99.75442,-1.326,-0.063,68.88,0,109.5,13.63,-0.58,22.5
"2009-10-26 01:02:00",1359770,12.58,58.74,4.902,0.888,5.882,99.7445,-1.351,-0.079,68.92,0,109.5,13.63,-0.60,20.7
"2009-10-26 01:02:30",1359771,11.73,57.51,4.008,0.589,6.157,99.73912,-1.365,-0.073,68.99,0,109.5,13.63,-0.62,19.5
"2009-10-26 01:03:00",1359772,11.49,57.09,3.413,0.681,5.775,99.7343,-1.377,-0.095,69.13,0,109.4,13.63,-0.63,19.1
"2009-10-26 01:03:30",1359773,11.82,55.98,4.554,0.956,5.807,99.72836,-1.392,-0.09,69.18,0,109.5,13.63,-0.64,18.0
"2009-10-26 01:04:00",1359774,11.73,56.89,3.304,0.842,5.765,99.72807,-1.393,-0.106,69.23,0,109.5,13.64,-0.65,18.9
"2009-10-26 01:04:30",1359775,11.83,56.96,4.2,0.741,5.889,99.72807,-1.393,-0.101,69.23,0,109.5,13.64,-0.65,19.0
"2009-10-26 01:05:00",1359776,12.05,58.47,2.216,0.657,5.899,99.72807,-1.393,-0.119,69.14,0,109.4,13.64,-0.65,20.5
"2009-10-26 01:05:30",1359777,11.96,54.02,4.065,0.726,5.912,99.72807,-1.393,-0.108,68.72,0,109.5,13.64,-0.65,16.0
"2009-10-26 01:06:00",1359778,12.08,54.54,3.816,0.658,5.89,99.72807,-1.393,-0.125,68.57,0,109.5,13.64,-0.65,16.5
"2009-10-26 01:06:30",1359779,12.63,56.92,4.689,0.645,6.18,99.72807,-1.393,-0.126,68.61,0,109.5,13.64,-0.65,18.9
"2009-10-26 01:07:00",1359780,12.33,58.51,3.47,0.906,5.96,99.72636,-1.397,-0.146,68.43,0,109.5,13.64,-0.65,20.5
"2009-10-26 01:07:30",1359781,12.83,54.07,4.049,0.708,6.127,99.71788,-1.419,-0.146,68.21,0,109.5,13.64,-0.67,16.1
"2009-10-26 01:08:00",1359782,12.44,56.67,3.272,0.639,5.953,99.70627,-1.448,-0.173,68.08,0,109.4,13.64,-0.70,18.7
"2009-10-26 01:08:30",1359783,12.31,57.85,3.567,0.605,6.091,99.69918,-1.466,-0.162,68.34,0,109.4,13.64,-0.72,19.8
"2009-10-26 01:09:00",1359784,12.24,58.79,3.838,0.728,5.982,99.69578,-1.475,-0.163,68.24,0,109.3,13.64,-0.73,20.8
"2009-10-26 01:09:30",1359785,13.3,57.03,3.066,0.863,5.922,99.69521,-1.477,-0.182,68.11,0,109.5,13.64,-0.73,19.0
"2009-10-26 01:10:00",1359786,13.77,56.79,4.005,0.702,6.139,99.69436,-1.479,-0.174,67.5,0,109.5,13.64,-0.73,18.8
"2009-10-26 01:10:30",1359787,13.41,58.82,2.956,0.869,6.129,99.69436,-1.479,-0.198,67.28,0,109.4,13.64,-0.73,20.8
"2009-10-26 01:11:00",1359788,14.03,57.37,3.064,0.734,6.012,99.69408,-1.479,-0.197,67.2,0,109.4,13.64,-0.73,19.4
"2009-10-26 01:11:30",1359789,12.74,55.97,3.161,0.771,6.056,99.69408,-1.479,-0.183,67.52,0,109.4,13.64,-0.73,18.0
"2009-10-26 01:12:00",1359790,11.88,58.39,4.007,0.795,6.068,99.69436,-1.479,-0.191,67.51,0,109.5,13.64,-0.73,20.4
"2009-10-26 01:12:30",1359791,12.94,56.8,3.803,0.883,6.126,99.69436,-1.479,-0.209,67.86,0,109.5,13.64,-0.73,18.8
"2009-10-26 01:13:00",1359792,12.9,56.63,3.045,0.658,6.108,99.69408,-1.479,-0.208,68,0,109.4,13.64,-0.73,18.6
"2009-10-26 01:13:30",1359793,12.63,57.65,3.769,0.795,5.97,99.69408,-1.479,-0.199,68,0,109.5,13.64,-0.73,19.7
"2009-10-26 01:14:00",1359794,11.89,57.87,4.073,0.719,5.979,99.69408,-1.479,-0.2,67.97,0,109.5,13.64,-0.73,19.9
"2009-10-26 01:14:30",1359795,11.97,56.53,3.715,0.553,6.127,99.69408,-1.479,-0.195,68.07,0,109.5,13.64,-0.73,18.5
"2009-10-26 01:15:00",1359796,11.73,55.19,2.803,0.764,6.046,99.69408,-1.479,-0.216,68.49,0,109.4,13.64,-0.73,17.2
"2009-10-26 01:15:30",1359797,11.17,54.17,3.873,0.679,5.829,99.69408,-1.479,-0.211,68.89,0,109.4,13.64,-0.73,16.2
"2009-10-26 01:16:00",1359798,10.7,55.8,3.052,0.788,5.717,99.69408,-1.479,-0.225,69.04,0,109.5,13.64,-0.73,17.8
"2009-10-26 01:16:30",1359799,10.47,56.44,3.068,0.811,5.729,99.69408,-1.479,-0.22,69.32,0,109.4,13.64,-0.73,18.4
"2009-10-26 01:17:00",1359800,10.19,55.29,3.589,0.646,5.67,99.69408,-1.479,-0.211,69.41,0,109.4,13.64,-0.73,17.3
"2009-10-26 01:17:30",1359801,11.33,55.34,4.439,0.694,5.589,99.69408,-1.479,-0.191,69.44,0,109.4,13.64,-0.73,17.3
"2009-10-26 01:18:00",1359802,11.35,52.59,3.449,0.675,5.541,99.69408,-1.479,-0.224,69.56,0,109.4,13.64,-0.73,14.6
"2009-10-26 01:18:30",1359803,11.21,54.23,3.798,0.546,5.915,99.69408,-1.479,-0.219,69.78,0,109.4,13.64,-0.73,16.2
"2009-10-26 01:19:00",1359804,11.15,52.23,3.11,0.623,5.714,99.69408,-1.479,-0.229,70.09,0,109.4,13.64,-0.73,14.2
"2009-10-26 01:19:30",1359805,11.09,53.75,3.985,0.638,5.637,99.69323,-1.482,-0.216,70.34,0,109.4,13.64,-0.73,15.8
"2009-10-26 01:20:00",1359806,11.17,55.63,4.507,0.523,5.823,99.68926,-1.492,-0.224,70.55,0,109.4,13.64,-0.74,17.6
"2009-10-26 01:20:30",1359807,12.47,53.08,3.355,0.843,5.796,99.68728,-1.497,-0.236,70.55,0,109.4,13.64,-0.75,15.1
"2009-10-26 01:21:00",1359808,12.02,56.67,4.182,0.822,5.694,99.68049,-1.514,-0.238,70.04,0,109.4,13.64,-0.77,18.7
"2009-10-26 01:21:30",1359809,10.85,50.86,5.174,0.894,5.741,99.67567,-1.526,-0.232,70.08,0,109.5,13.64,-0.78,12.9
"2009-10-26 01:22:00",1359810,10.99,51.01,5.21,0.831,5.724,99.67426,-1.53,-0.238,70.32,0,109.5,13.64,-0.78,13.0
"2009-10-26 01:22:30",1359811,11.18,54.9,4.554,0.574,5.957,99.67001,-1.541,-0.238,70.25,0,109.4,13.64,-0.79,16.9
"2009-10-26 01:23:00",1359812,11.29,57.42,3.185,0.77,5.611,99.66434,-1.555,-0.264,69.99,0,109.4,13.64,-0.81,19.4
"2009-10-26 01:23:30",1359813,11.83,58.54,4.977,0.551,5.791,99.66264,-1.56,-0.247,69.45,0,109.4,13.64,-0.81,20.5
"2009-10-26 01:24:00",1359814,11.67,56.23,4.764,1.409,5.691,99.66066,-1.565,-0.249,69.09,0,109.4,13.64,-0.82,18.2
"2009-10-26 01:24:30",1359815,11.42,53.05,3.8,0.893,5.755,99.66009,-1.566,-0.26,69.15,0,109.4,13.64,-0.82,15.0
"2009-10-26 01:25:00",1359816,12.17,55.57,3.98,0.655,5.635,99.66009,-1.566,-0.274,68.95,0,109.4,13.64,-0.82,17.6
"2009-10-26 01:25:30",1359817,11.6,56.68,3.541,0.769,5.766,99.66009,-1.566,-0.272,68.6,0,109.4,13.64,-0.82,18.7
"2009-10-26 01:26:00",1359818,10.91,54.41,4.267,0.793,5.717,99.66009,-1.566,-0.275,68.56,0,109.4,13.64,-0.82,16.4
"2009-10-26 01:26:30",1359819,11.66,53.86,3.38,0.917,5.738,99.66009,-1.566,-0.28,68.96,0,109.4,13.64,-0.82,15.9
"2009-10-26 01:27:00",1359820,10.88,55.97,4.054,0.49,5.797,99.66009,-1.566,-0.261,69.37,0,109.4,13.64,-0.82,18.0
"2009-10-26 01:27:30",1359821,11.1,54.99,4.492,0.71,5.604,99.66009,-1.566,-0.269,68.83,0,109.4,13.64,-0.82,17.0
"2009-10-26 01:28:00",1359822,11.3,54.71,4.23,0.682,5.66,99.66009,-1.566,-0.272,68.64,0,109.4,13.64,-0.82,16.7
"2009-10-26 01:28:30",1359823,11.14,53.02,3.911,0.584,5.645,99.66009,-1.566,-0.291,68.5,0,109.4,13.64,-0.82,15.0
"2009-10-26 01:29:00",1359824,10.99,52.26,3.915,0.356,5.747,99.66009,-1.566,-0.291,68.6,0,109.3,13.64,-0.82,14.3
"2009-10-26 01:29:30",1359825,10.54,53.12,4.057,0.619,5.635,99.66009,-1.566,-0.275,68.95,0,109.4,13.64,-0.82,15.1
"2009-10-26 01:30:00",1359826,10.11,54.96,3.259,0.656,5.393,99.66009,-1.566,-0.301,69.05,0,109.4,13.64,-0.82,17.0
"2009-10-26 01:30:30",1359827,11.12,52.92,4.723,0.64,5.613,99.65783,-1.572,-0.297,69.16,0,109.4,13.64,-0.83,14.9
"2009-10-26 01:31:00",1359828,10.82,53,4.162,0.493,5.467,99.64677,-1.6,-0.301,69.11,0,109.4,13.64,-0.85,15.0
"2009-10-26 01:31:30",1359829,10.31,55.89,4.218,0.667,5.451,99.64168,-1.613,-0.302,69.14,0,109.4,13.64,-0.87,17.9
"2009-10-26 01:32:00",1359830,10.28,58.44,3.588,0.783,5.311,99.64111,-1.614,-0.335,69.27,0,109.4,13.64,-0.87,20.4
"2009-10-26 01:32:30",1359831,10.76,53.49,3.077,0.769,5.426,99.63799,-1.622,-0.344,69.13,0,109.4,13.64,-0.88,15.5
"2009-10-26 01:33:00",1359832,10.62,53.4,3.582,0.599,5.376,99.63205,-1.637,-0.337,69.06,0,109.4,13.64,-0.89,15.4
"2009-10-26 01:33:30",1359833,10.26,52.81,3.584,0.64,5.316,99.62837,-1.647,-0.344,69.11,0,109.4,13.64,-0.90,14.8
"2009-10-26 01:34:00",1359834,10.03,52.7,3.252,0.724,5.281,99.6261,-1.653,-0.345,69.26,0,109.4,13.64,-0.91,14.7
"2009-10-26 01:34:30",1359835,10.5,56.36,4.316,0.661,5.334,99.6261,-1.653,-0.357,69.23,0,109.4,13.64,-0.91,18.4
"2009-10-26 01:35:00",1359836,11.04,57.69,3.719,0.724,5.314,99.6261,-1.653,-0.34,69.11,0,109.4,13.64,-0.91,19.7
"2009-10-26 01:35:30",1359837,11,55.72,3.613,0.724,5.285,99.6261,-1.653,-0.362,68.94,0,109.4,13.64,-0.91,17.7
"2009-10-26 01:36:00",1359838,10.58,53.36,5.435,0.624,5.333,99.6261,-1.653,-0.375,68.92,0,109.4,13.64,-0.91,15.4
"2009-10-26 01:36:30",1359839,10.6,53.94,4.305,0.683,5.558,99.6261,-1.653,-0.358,69.06,0,109.4,13.64,-0.91,15.9
"2009-10-26 01:37:00",1359840,10.81,57.59,2.899,0.639,5.294,99.6244,-1.657,-0.39,69.12,0,109.3,13.64,-0.91,19.6
"2009-10-26 01:37:30",1359841,10.67,58.07,3.586,0.63,5.253,99.61987,-1.669,-0.377,68.99,0,109.4,13.64,-0.92,20.1
"2009-10-26 01:38:00",1359842,10.65,58.58,3.748,0.666,5.262,99.6125,-1.687,-0.391,68.92,0,109.5,13.64,-0.94,20.6
"2009-10-26 01:38:30",1359843,10.26,58.67,3.557,0.702,5.425,99.60655,-1.702,-0.4,68.88,0,109.5,13.64,-0.96,20.7
"2009-10-26 01:39:00",1359844,9.97,58.09,3.989,0.4,5.27,99.60033,-1.718,-0.41,68.85,0,109.4,13.64,-0.97,20.1
"2009-10-26 01:39:30",1359845,9.43,57.31,4.251,0.624,5.31,99.59664,-1.728,-0.387,69.02,0,109.4,13.64,-0.98,19.3
"2009-10-26 01:40:00",1359846,9.77,58.63,3.789,0.693,5.097,99.59353,-1.736,-0.401,69.25,0,109.4,13.64,-0.99,20.6
"2009-10-26 01:40:30",1359847,10.18,58.18,4.036,0.585,5.35,99.59212,-1.739,-0.42,69.22,0,109.4,13.64,-0.99,20.2
"2009-10-26 01:41:00",1359848,9.33,60.58,3.486,0.57,4.976,99.59212,-1.739,-0.425,69.24,0,109.4,13.64,-0.99,22.6
"2009-10-26 01:41:30",1359849,8.69,59.88,3.648,0.629,4.98,99.59212,-1.739,-0.435,69.26,0,109.5,13.64,-0.99,21.9
"2009-10-26 01:42:00",1359850,9.06,60.79,4.063,0.674,4.895,99.59212,-1.739,-0.444,69.35,0,109.5,13.65,-0.99,22.8
"2009-10-26 01:42:30",1359851,9.08,59.8,3.4,0.704,4.941,99.59212,-1.739,-0.452,69.46,0,109.5,13.65,-0.99,21.8
"2009-10-26 01:43:00",1359852,8.93,60.15,3.039,0.694,4.717,99.59212,-1.739,-0.448,69.59,0,109.4,13.65,-0.99,22.2
"2009-10-26 01:43:30",1359853,8.95,60.51,4.545,0.657,4.635,99.59212,-1.739,-0.444,69.76,0,109.4,13.65,-0.99,22.5
"2009-10-26 01:44:00",1359854,8.7,63.16,4.523,0.594,4.668,99.59212,-1.739,-0.446,69.91,0,109.4,13.65,-0.99,25.2
"2009-10-26 01:44:30",1359855,8.26,63.49,4.004,0.638,4.594,99.58787,-1.75,-0.434,70,0,109.4,13.65,-1.00,25.5
"2009-10-26 01:45:00",1359856,7.826,65.59,4.202,0.399,4.45,99.58078,-1.768,-0.465,70.06,0,109.4,13.65,-1.02,27.6
"2009-10-26 01:45:30",1359857,7.621,66.34,4.364,0.653,4.158,99.57398,-1.785,-0.454,70.14,0,109.5,13.65,-1.04,28.3
"2009-10-26 01:46:00",1359858,7.445,69.11,3.308,0.675,3.841,99.57341,-1.787,-0.475,70.32,0,109.5,13.65,-1.04,31.1
"2009-10-26 01:46:30",1359859,7.621,66.25,3.17,0.658,3.929,99.57256,-1.789,-0.481,70.58,0,109.5,13.65,-1.04,28.2